www.pogodaiklimat.ru

Погода и климат >> Архив погоды >> Россия >> Ненецкий АО >> Шойна


АРХИВ ПОГОДЫ в Шойне

Время (UTC), дата Ветер
(напр.,м/с)
 
Видим.   Явления Облачность Т
(С)
Тd
(С)
f
(%)
Тe
(С)
Тes
(С)
Комфортность P
(гПа)
Po
(гПа)
Тmin
(С)
Tmax
(С)
R
(мм)
R24
(мм)
S
(см)
09 16.07 В 9-11
{11}
20 км 10/8 300 м
[Cb calv Ac lent]
+11.7 +8.4 80 +8 +8 1011.0 1010.4
12 16.07 В 7
{11}
20 км 10/10 600 м
[Sc]
+10.5 +7.2 80 +7 +7 1010.7 1010.1
15 16.07 СВ 4 20 км 10/10 600 м
[Sc]
+8.9 +7.4 90 +6 +6 1010.3 1009.7 +12.0
18 16.07 С 4 20 км 10/10 600 м
[Sc]
+7.2 +6.5 95 +4 +4 1008.8 1008.2
21 16.07 СЗ 4 20 км 10/10 300 м
[Sc]
+6.7 +6.7 100 +3 +3 1007.0 1006.4
00 17.07 З 5 20 км 10/10 600 м
[Sc]
+6.7 +6.7 100 +2 +2 1007.4 1006.8
03 17.07 ЮЗ 6
{10}
20 км 10/10 600 м
[Sc]
+7.0 +6.4 96 +2 +2 1008.3 1007.7 +6.5
06 17.07 ЮЗ 5
{11}
20 км 10/10 200 м
[Sc]
+8.1 +7.6 97 +4 +4 1010.1 1009.5
09 17.07 ЮЗ 6 20 км {морось} 9/5 200 м
[Sc Ac trans]
+8.9 +7.3 90 +5 +6 1012.2 1011.5
12 17.07 ЮЗ 6
{10}
20 км {морось} 8/4 600 м
[Cu Sc Ac trans]
+10.6 +7.2 79 +7 +8 1014.4 1013.8
15 17.07 ЮЗ 5 20 км 10/3 600 м
[Cu med, cong Ac trans Cc]
+11.4 +7.3 76 +9 +9 1016.3 1015.7 +11.6 0.0
18 17.07 Ю 2 20 км 10/5 600 м
[Cu Sc Ac trans Cc]
+10.1 +9.0 93 +8 +8 1017.8 1017.2
21 17.07 Ю 2 20 км 9/9 600 м
[Sc]
+10.0 +8.7 92 +8 +8 1019.0 1018.4
00 18.07 В 1 4000 м дымка ясно +5.7 +5.5 99 +4 +4 1019.9 1019.3
03 18.07 В 2 20 км ясно +10.1 +8.3 89 +9 +11 1020.7 1020.1 +5.5
06 18.07 С 2 20 км 4/4 600 м
[Cu Sc]
+13.7 +8.6 71 +13 +18 1021.2 1020.6
09 18.07 СЗ 4 20 км 5/3 600 м
[Cu hum Ci]
+13.1 +6.5 64 +12 +16 1021.4 1020.8
12 18.07 С 4 20 км 4/3 600 м
[Cu Sc Cc]
+12.8 +8.4 75 +11 +14 1021.5 1020.9
15 18.07 ЮВ 5 20 км 6/0
[Cs]
+15.4 +8.2 62 +14 +15 1021.2 1020.6 +15.5
18 18.07 В 6 20 км 3/0
[Ac trans Ci fib]
+12.2 +7.1 71 +10 +10 1021.3 1020.7
21 18.07 СВ 6 20 км 3/0
[Ci fib]
+8.7 +6.3 85 +5 +5 1021.3 1020.7
00 19.07 СВ 5 20 км ясно +7.5 +6.1 91 +3 +4 1020.9 1020.3
03 19.07 СВ 4 20 км 5/0
[Ac lent Ci fib]
+10.3 +7.2 81 +8 +9 1019.9 1019.3 +7.3
06 19.07 СВ 6 20 км 3/0
[Cc]
+14.0 +8.2 68 +12 +15 1018.3 1017.7
09 19.07 СВ 7
{11}
20 км 10/3 600 м
[Cu med, cong Cc]
+13.2 +7.4 68 +11 +12 1017.0 1016.4
12 19.07 СВ 7
{11}
20 км 8/3 600 м
[Cu med, cong Ac trans Cc]
+13.2 +7.0 66 +11 +12 1016.0 1015.4
15 19.07 СВ 6 20 км 9/3 600 м
[Cu med, cong Ac trans Cc]
+11.8 +7.5 75 +9 +9 1014.8 1014.2 +14.4
18 19.07 С 5 20 км 10/8 600 м
[Sc diur, vesp Ac As]
+9.1 +6.9 86 +6 +6 1014.4 1013.8
21 19.07 С 6
{10}
20 км 10/6 600 м
[Sc Ac As]
+8.3 +6.7 90 +4 +4 1013.3 1012.7
00 20.07 С 6
{10}
20 км 10/5 200 м
[Sc Ac As]
+7.8 +6.4 91 +3 +3 1012.8 1012.2
03 20.07 С 5
{10}
20 км 8/5 200 м
[Sc Ac trans Cc]
+8.6 +7.0 90 +5 +5 1012.1 1011.5 +7.7
06 20.07 С 6
{11}
20 км 9/8 200 м
[St Ac lent]
+7.9 +6.6 91 +4 +4 1011.9 1011.3
09 20.07 С 7-11
{11}
20 км 9/9 300 м
[St]
+7.9 +6.9 93 +3 +4 1012.2 1011.6
12 20.07 СЗ 6
{11}
20 км 6/3 300 м
[Cb calv Ac trans]
+8.2 +6.8 91 +4 +6 1013.2 1012.6
15 20.07 СЗ 6 20 км 10/10 600 м
[Sc]
+8.6 +7.2 91 +5 +5 1013.7 1013.1 +9.0
18 20.07 СЗ 5 500 м туман ?/? +6.5 +6.2 98 +2 +2 1014.2 1013.6
21 20.07 С 4 4000 м в посл. час туман 10/10 300 м
[St]
+6.3 +6.3 100 +2 +2 1014.9 1014.3
00 21.07 С 3 2000 м дымка {туман} 10/10 200 м
[St]
+5.5 +5.4 99 +2 +2 1015.5 1014.9
03 21.07 С 3 4000 м дымка 10/10 200 м
[St]
+4.8 +4.6 99 +1 +1 1015.9 1015.3 +4.6
06 21.07 СЗ 3 20 км 8/8 200 м
[St]
+6.6 +5.5 93 +3 +5 1016.7 1016.1
09 21.07 СЗ 4 4000 м дымка 9/6 200 м
[St Cc]
+7.4 +6.4 93 +4 +6 1017.0 1016.4
12 21.07 СЗ 5 20 км 3/1 600 м
[Cu hum Cc]
+9.2 +7.1 87 +6 +9 1017.6 1017.0
15 21.07 СЗ 4 20 км 3/0
[Cc]
+10.9 +7.6 80 +9 +10 1017.8 1017.2 +10.9
18 21.07 Ю 2
{11}
20 км ясно +10.4 +8.6 89 +9 +9 1018.0 1017.4
21 21.07 ЮВ 2 200 м туман ?/? +4.9 +4.7 99 +2 +2 1019.2 1018.6
00 22.07 В 2 500 м туман 8/0
[Cc]
+3.2 +3.1 99 -0 0 1019.7 1019.1
03 22.07 В 2 20 км в посл. час туман 6/0
[Cc]
+5.3 +4.1 92 +3 +5 1019.8 1019.2 +2.4
06 22.07 В 3 20 км {туман} 6/0
[Ci]
+11.8 +6.0 68 +10 +15 1019.9 1019.3
09 22.07 СЗ 4 20 км 3/0
[Ac trans Ci fib]
+11.2 +7.5 78 +9 +14 1019.8 1019.2
12 22.07 СЗ 5 20 км 8/0
[Cs]
+10.4 +7.3 81 +7 +11 1019.8 1019.2
15 22.07 С 4 20 км 8/0
[Cs]
+14.5 +9.1 70 +13 +15 1018.8 1018.2 +14.5
18 22.07 В 5 20 км 9/0
[Cc]
+11.9 +7.0 72 +10 +10 1019.1 1018.5
21 22.07 СВ 4 20 км 9/0
[Cs]
+6.7 +5.9 95 +3 +3 1019.1 1018.5
00 23.07 СВ 4 20 км 9/3 600 м
[Sc Ci]
+5.7 +5.0 95 +2 +2 1018.9 1018.2
03 23.07 СВ 5 20 км 9/4 600 м
[Sc Cs]
+8.3 +6.3 87 +5 +5 1018.2 1017.6 +5.5
06 23.07 СВ 6 20 км 9/0
[Ac trans Cc]
+12.6 +7.5 71 +10 +12 1017.9 1017.3

 

Местоположение метеостанции Шойна (Ненецкий АО, Россия): широта 67.88 долгота 44.17 высота над уровнем моря 8 м.

В архиве по умолчанию представлена погода в Шойне за последнюю неделю. Архивные данные за месяц целиком и за предыдущие месяцы, начиная с января 2011 года, Вы можете получить, выбрав интересующий диапазон дат из раскрывающегося списка и нажав кнопку "Ввод!".


*Определитесь, кто Вы:
робот инопланетянин человек

Внимание! Время в таблицах - всемирное. Для получения местного времени необходимо прибавить поправку, которая равна 3 ч.

Смотрите также архив погоды в соседних городах и на ближайших метеорологических станциях:

Погода в Канином Носе (Ненецкий АО, Россия) (93 км)
Погода на Мысе Микулкин (Ненецкий АО, Россия) (105 км)
Погода в Неси (Ненецкий АО, Россия) (144 км)
Погода на Моржовец Острове (Архангельская область, Россия) (148 км)
Погода в Абрамовском маяке (Архангельская область, Россия) (172 км)
Погода в Святом Носе (Мурманская область, Россия) (186 км)
Погода в Индиге (Ненецкий АО, Россия) (191 км)
Погода в Иоканьге (Мурманская область, Россия) (196 км)
Погода в Нижней Пеше (Ненецкий АО, Россия) (199 км)
Погода в Каневке (Мурманская область, Россия) (209 км)

Пояснения к столбцам:

Ветер - указаны скорость ветра в м/с - средняя за 10 мин, порывы в срок и между сроками (в фигурных скобках) и направление, откуда дует ветер: С - северный, СВ - северо-восточный, В - восточный, ЮВ - юго-восточный, Ю - южный, ЮЗ - юго-западный, З - западный, СЗ - северо-западный.
Видимость - горизонтальная дальность видимости в метрах или километрах. При видимости от 1 до 10 км при отсутствии осадков обычно наблюдается дымка, при ухудшении видимости до 1 км и менее - туман. В сухую погоду видимость может ухудшаться дымом, пылью или мглою.
Явления - указаны атмосферные явления, наблюдавшиеся в срок или в последний час перед сроком; фигурными скобками обозначены явления, наблюдавшиеся между сроками (за 1-3 часа до срока); квадратными скобками обозначены град или гололедные отложения с указанием их диаметра в мм.
Облачность - указаны через наклонную черту общая и нижняя облачность в баллах и высота нижней границы облаков в метрах; квадратными скобками обозначены формы облаков: Ci - перистые, Cs - перисто-слоистые, Cc - перисто-кучевые, Ac - высококучевые, As - высокослоистые, Sc - слоисто-кучевые, Ns - слоисто-дождевые, Cu - кучевые, Cb - кучево-дождевые. Подробнее классификацию облаков см. в Атласе облаков (PDF).
T - Температура воздуха - температура, измеренная на высоте 2 м над землей.
Td - Температура точки росы - температура, при понижении до которой содержащийся в воздухе водяной пар достигнет насыщения.
f - Относительная влажность воздуха - влажноcть воздуха, измеренная на высоте 2 м над землей.
Te - Эффективная температура - температура, которую ощущает одетый по сезону человек в тени. Характеристика душности погоды. При расчете учитывается влияние влажности воздуха и скорости ветра на теплоощущения человека.
Tes - Эффективная температура на солнце - температура, которую ощущает человек, с поправкой на солнечный нагрев. Характеристика знойности погоды. Зависит от высоты солнца над горизонтом, облачности и скорости ветра. Ночью, в пасмурную погоду, а также при ветре 12 м/с и более поправка равна нулю.
P - Атмосферное давление - приведенное к уровню моря атмосферное давление.
Po - Атмосферное давление - измеренное на уровне метеостанции атмосферное давление.
Tmin - Минимальная температура - минимум температуры воздуха на высоте 2 м над землей.
Tmax - Максимальная температура - максимум температуры воздуха на высоте 2 м над землей.
R - Количество осадков - Количество выпавших осадков за период времени, мм. При наведении курсора мыши на число - период времени, за который выпало указанное количество осадков.
R24 - Количество осадков - Количество выпавших осадков за 24 часа, мм.
S - Снежный покров - Высота снежного покрова, см. При наведении курсора мыши на число - состояние снежного покрова и степень покрытия местности в баллах.